Regional Weather Roundup
Issued by NWS Portland, ME

Current Version | Previous Version | Text Only | Print | Product List | Glossary On
Versions: 1 2 3 4 5 6 7 8 9 10 11 12 13 14 15 16 17 18 19 20 21 22 23 24 25 26 27 28 29 30 31 32 33 34 35 36 37 38 39 40 41 42 43 44 45 46 47 48 49 50
000 ASUS41 KGYX 191410 RWRGYX WEATHER ROUNDUP FOR MAINE AND NEW HAMPSHIRE NATIONAL WEATHER SERVICE GRAY ME 1000 AM EDT TUE JUN 19 2018 MEZ002-005-006-010-012-015-018-020-021-024-026-027-029-191500- MAINE CITY SKY/WX TMP DP RH WIND PRES REMARKS PORTLAND FAIR 74 56 53 NW15 29.72R SANFORD FAIR 74 58 57 NW10 29.74R BAR HARBOR FAIR 71 56 58 NW9G18 29.64S WISCASSET FAIR 72 52 49 NW12G24 29.71R ROCKLAND CLOUDY 71 59 65 W13 29.67R FRYEBURG FAIR 72 54 53 N12G18 29.75R LEWISTONAUBURN FAIR 69 50 50 NW15G26 29.73R AUGUSTA FAIR 69 50 50 NW14G25 29.71R WATERVILLE FAIR 67 51 56 N13G22 29.70R BANGOR PTSUNNY 68 53 58 NW18G29 29.67R GREENVILLE N/A 56 49 77 NW16G26 29.72R MILLINOCKET FAIR 66 46 48 NW20G28 29.68R HOULTON CLOUDY 60 48 64 NW16G25 29.63R PRESQUE ISLE CLOUDY 58 44 60 NW18G25 29.66R FRENCHVILLE CLOUDY 57 45 64 NW12 29.64R CARIBOU CLOUDY 60 46 59 NW15G22 29.64R $$ NHZ002-005-008-009-011-012-014-191500- NEW HAMPSHIRE CITY SKY/WX TMP DP RH WIND PRES REMARKS PORTSMOUTH PTSUNNY 76 55 47 W23G29 29.71S ROCHESTER FAIR 74 57 55 NW16G31 29.73S NASHUA FAIR 75 57 53 NW18G28 29.77S MANCHESTER PTSUNNY 75 56 51 NW18G25 29.76R CONCORD FAIR 72 57 59 NW13G25 29.77R LACONIA PTSUNNY 70 55 59 NW13 29.79R PLYMOUTH FAIR 67 52 58 W13G21 29.79R BERLIN FAIR 61 48 62 NW13G28 29.83R WHITEFIELD FAIR 62 50 64 N12 29.84R JAFFREY FAIR 72 58 61 N8 29.81R KEENE FAIR 75 54 47 N18 29.81R LEBANON PTSUNNY 67 51 56 NW13G22 29.84R MT WASHINGTON FOG 37 37 100 NW58G74 N/A VSB 1/8 $$ VTZ005-007-008-191500- VERMONT CITY SKY/WX TMP DP RH WIND PRES REMARKS ST JOHNSBURY N/A 63 50 62 MISG 29.85R MONTPELIER PTSUNNY 59 52 77 NW8 29.92R BURLINGTON PTSUNNY 62 50 64 N16G23 29.91R $$ MAZ007-012-024-CTZ003-RIZ002-NYZ038-NYZ072-191500- SOUTHERN NEW ENGLAND AND NY CITY SKY/WX TMP DP RH WIND PRES REMARKS BOSTON PTSUNNY 78 58 49 NW13G24 29.74R WORCESTER FAIR 73 58 59 N16G23 29.80R NANTUCKET CLOUDY 72 66 81 N15 29.72R PROVIDENCE PTSUNNY 79 59 50 NW15G23 29.76R HARTFORD PTSUNNY 78 61 55 N8 29.79R ALBANY FAIR 74 60 61 NW9 29.85S NEW YORK CITY PTSUNNY 83 67 58 N8G18 29.76F $$ ANZ081-ANZ082-ANZ150-NHZ014-MEZ023>029-191500- COASTAL MARINE OBSERVATIONS STATION/POSITION TIME TEMP WIND PRES WAVE AIR SEA DIR/SP/G HT/PER (UTC) (F) (DEG/KT/KT) (MB) (FT/S) MOUNT DESERT ROC 1400 62 290/ 18/ 19 1003.7R MATINICUS ROCK 1400 66 320/ 15/ 16 1004.2R ISLE OF SHOALS 1400 69 320/ 14/ 17 1006.1R JEFFREYS LEDGE 1336 56 N/A 2/ 6 $$ .............KEY.............. WCI - WIND CHILL TC - TEMPERATURE IN CELSIUS VSB - VISIBILITY IN MILES HX - HEAT INDEX FAIR- INDICATES FEW OR NO CLOUDS BELOW 12,000 FT, WITH NO SIGNIFICANT WEATHER AND/OR OBSTRUCTIONS TO VISIBILITY.

USA.gov is the U.S. government's official web portal to all federal, state and local government web resources and services.